This demonstration page uses our WeatherBlox Daily Observations layout. Learn more.

Left ArrowRight Arrow

39.92423, -83.80882

Hourly Observations for August 30, 2016

Temp ( °F °C ) Dew Point ( °F °C ) Humidity (%) Winds ( mph kmh ) Pressure ( in mb ) Visibility ( mi km ) Precip ( " mm )
12:56 am 00:56 Clear 68 20 65 18.3 90 90 ENE 7 11 30.18 1022 10 16.0934 N/A
1:56 am 01:56 Clear 67 19.4 65 18.3 93 93 ENE 5 7 30.18 1022 10 16.0934 N/A
2:56 am 02:56 Clear 67 19.4 64 17.8 91 91 ENE 3 6 30.17 1022 10 16.0934 N/A
3:56 am 03:56 Clear 65 18.3 64 17.8 97 97 NE 5 7 30.18 1022 10 16.0934 N/A
4:56 am 04:56 Clear 63 17.2 62 16.7 97 97 ESE 5 7 30.17 1022 10 16.0934 N/A
5:56 am 05:56 Clear 63 17.2 62 16.7 97 97 E 5 7 30.17 1022 10 16.0934 N/A
6:56 am 06:56 Clear 63 17.2 61 16.1 93 93 ENE 3 6 30.17 1022 10 16.0934 N/A
7:56 am 07:56 Sunny 65 18.3 62 16.7 90 90 E 5 7 30.18 1022 10 16.0934 N/A
8:56 am 08:56 Sunny 70 21.1 65 18.3 84 84 E 5 7 30.18 1022 10 16.0934 N/A
9:56 am 09:56 Sunny 75 23.9 67 19.4 76 76 SE 3 6 30.17 1022 10 16.0934 N/A
10:56 am 10:56 Sunny 78 25.6 67 19.4 69 69 SSE 5 7 30.16 1022 10 16.0934 N/A
11:56 am 11:56 Sunny 81 27.2 66 18.9 61 61 SE 5 7 30.16 1021 10 16.0934 N/A
12:56 pm 12:56 Sunny 83 28.3 66 18.9 57 57 N N/A 30.15 1021 10 16.0934 N/A
1:56 pm 13:56 Sunny 83 28.3 67 19.4 59 59 SSW 3 6 30.14 1021 10 16.0934 N/A
2:56 pm 14:56 Sunny 84 28.9 65 18.3 53 53 VRB 3 6 30.12 1020 10 16.0934 N/A
3:56 pm 15:56 Sunny 85 29.4 66 18.9 53 53 N N/A 30.1 1019 10 16.0934 N/A
4:56 pm 16:56 Sunny 84 28.9 65 18.3 53 53 VRB 3 6 30.08 1019 10 16.0934 N/A
5:56 pm 17:56 Sunny 83 28.3 68 20 61 61 S 3 6 30.06 1018 10 16.0934 N/A
6:56 pm 18:56 Sunny 80 26.7 70 21.1 71 71 SSE 3 6 30.05 1018 10 16.0934 N/A
7:56 pm 19:56 Sunny 76 24.4 66 18.9 72 72 N N/A 30.04 1017 10 16.0934 N/A
8:56 pm 20:56 Clear 73 22.8 68 20 84 84 N N/A 30.06 1018 10 16.0934 N/A
9:56 pm 21:56 Clear 72 22.2 67 19.4 84 84 N N/A 30.07 1018 10 16.0934 N/A
10:56 pm 22:56 Clear 69 20.6 67 19.4 93 93 N N/A 30.08 1019 10 16.0934 N/A
11:56 pm 23:56 Mostly Clear 71 21.7 69 20.6 94 94 NNW 7 11 30.07 1018 10 16.0934 N/A

Powered by AerisWeather